Погода в Цаган-Усн

Россия / Республика Калмыкия     46°02′58″N   45°17′37″E
темп.,
°C
ветер,
м/с
пор.,
м/с
влажн.,
%
обл.,
%
осадки,
мм/ч
давл.,
гПа
погр.,
м
12 мая, ср
ср1200:00+12в35665 0.0 1018105
03:00+11всв33763 0.0 101731
06:00+12всв246845 0.0 1018130
09:00+17в34490 0.0 1018790
12:00+21вюв34412 0.0 10171604
15:00+22в34373 0.0 10161950
18:00+23св354069 0.0 1015603
21:00+19юв35530 0.0 101588
13 мая, чт
чт1300:00+16юв33610 0.0 101433
03:00+14ююв33650 0.0 101445
06:00+14ююв24640 0.0 1015132
09:00+20юв23442 0.0 1015575
12:00+24вюв33370 0.0 1015991
15:00+27в34320 0.0 10151254
18:00+27в34360 0.0 1014142
21:00+21ююв59483 0.0 1015197
14 мая, пт
пт1400:00+17юв36672 0.0 1015127
03:00+16вюв37753 0.0 1015157
06:00+17вюв396974 0.0 1015236
09:00+25юв81239100 0.0 1015705
12:00+31юв914230 0.0 10141532
15:00+32юв1115200 0.0 10131800
18:00+27вюв913300 0.0 1014664
21:00+22юв717290 0.0 1015503
15 мая, сб
сб1500:00+19вюв615380 0.0 1014339
03:00+18вюв616380 0.0 1014311
06:00+19вюв616410 0.0 1014358
09:00+27юв814240 0.0 1014843
12:00+32юв1114150 0.0 10132135
15:00+32юв1112130 0.0 10132275
18:00+28юв813200 0.0 1013543
21:00+22вюв613390 0.0 1014344
16 мая, вс
вс1600:00+19вюв512495 0.0 1013253
03:00+18вюв4104873 0.0 1012160
06:00+20в394944 0.0 1012190
09:00+28вюв69283 0.0 1012790
12:00+33юв1013170 0.0 10103020
15:00+32вюв1214183 0.0 10092736
18:00+28вюв1014244 0.0 1009933
21:00+24вюв817295 0.0 1009556